EWG6G EDDK-LIPX

Flight info

Callsign EWG6G
Flight time 1h 13m
Altitude 35000
Route KUMIK1B KUMIK Y854 BOMBI DCT GIGET DCT ABUKA DCT BATUB M738 LORLO Q49 MOVOR T897 ANJAT
Aircraft B738/M-SDFGHIJ1LORVWXYZ/LB1

Departure

Time 2026-05-05 16:20
Airport Cologne Bonn Airport (EDDK)

Arrival

Time 2026-05-05 17:33
Airport Verona Villafranca Valerio Catullo Airport (LIPX)
Time Latitude Longitude Altitude Speed Heading
2026-05-05 15:37 50.87935 7.12304 231 ft 0 kts 175°
2026-05-05 16:02 50.87941 7.12303 231 ft 4 kts 171°
2026-05-05 16:02 50.87965 7.12292 235 ft 2 kts 171°
2026-05-05 16:02 50.87984 7.12294 235 ft 4 kts 213°
2026-05-05 16:02 50.88002 7.12314 232 ft 4 kts 217°
2026-05-05 16:03 50.88024 7.12339 234 ft 4 kts 216°
2026-05-05 16:03 50.88045 7.12363 236 ft 4 kts 210°
2026-05-05 16:03 50.88067 7.12374 234 ft 4 kts 160°
2026-05-05 16:03 50.88087 7.12349 232 ft 4 kts 125°
2026-05-05 16:04 50.88093 7.12335 231 ft 1 kts 126°
2026-05-05 16:07 50.88090 7.12343 232 ft 2 kts 126°
2026-05-05 16:08 50.88076 7.12372 233 ft 5 kts 127°
2026-05-05 16:08 50.88050 7.12421 233 ft 7 kts 133°
2026-05-05 16:08 50.88010 7.12480 232 ft 9 kts 138°
2026-05-05 16:08 50.87960 7.12552 231 ft 11 kts 137°
2026-05-05 16:09 50.87893 7.12608 231 ft 12 kts 181°
2026-05-05 16:09 50.87811 7.12640 231 ft 13 kts 146°
2026-05-05 16:09 50.87743 7.12736 231 ft 14 kts 137°
2026-05-05 16:09 50.87669 7.12841 231 ft 15 kts 138°
2026-05-05 16:10 50.87590 7.12956 231 ft 16 kts 137°
2026-05-05 16:10 50.87510 7.13072 231 ft 16 kts 137°
2026-05-05 16:10 50.87426 7.13195 231 ft 17 kts 137°
2026-05-05 16:10 50.87334 7.13328 231 ft 19 kts 138°
2026-05-05 16:11 50.87237 7.13467 234 ft 19 kts 137°
2026-05-05 16:11 50.86966 7.13860 245 ft 17 kts 137°
2026-05-05 16:12 50.86882 7.13981 253 ft 16 kts 137°
2026-05-05 16:12 50.86708 7.14174 257 ft 15 kts 142°
2026-05-05 16:13 50.86492 7.14487 266 ft 13 kts 138°
2026-05-05 16:13 50.86425 7.14583 270 ft 13 kts 137°
2026-05-05 16:13 50.86361 7.14676 273 ft 12 kts 137°
2026-05-05 16:14 50.86236 7.14858 280 ft 13 kts 137°
2026-05-05 16:14 50.86075 7.15091 287 ft 19 kts 137°
2026-05-05 16:15 50.85882 7.15369 296 ft 18 kts 137°
2026-05-05 16:15 50.85703 7.15629 300 ft 17 kts 137°
2026-05-05 16:16 50.85536 7.15870 306 ft 16 kts 137°
2026-05-05 16:16 50.85375 7.16106 307 ft 16 kts 131°
2026-05-05 16:17 50.85364 7.16410 308 ft 11 kts 54°
2026-05-05 16:17 50.85407 7.16476 307 ft 8 kts 34°
2026-05-05 16:18 50.85511 7.16518 310 ft 8 kts 358°
2026-05-05 16:18 50.85562 7.16502 308 ft 7 kts 331°
2026-05-05 16:18 50.85587 7.16472 307 ft 0 kts 317°
2026-05-05 16:19 50.85620 7.16424 307 ft 20 kts 317°
2026-05-05 16:19 50.85910 7.16006 302 ft 92 kts 317°
2026-05-05 16:19 50.87328 7.13937 902 ft 154 kts 317°
2026-05-05 16:20 50.89094 7.11714 2101 ft 186 kts 345°
2026-05-05 16:20 50.91793 7.12738 2885 ft 214 kts 19°
2026-05-05 16:21 50.94139 7.15730 3710 ft 245 kts 60°
2026-05-05 16:22 50.96585 7.23619 5546 ft 275 kts 64°
2026-05-05 16:22 50.98313 7.29129 7022 ft 282 kts 64°
2026-05-05 16:23 51.00086 7.34756 8465 ft 289 kts 64°
2026-05-05 16:23 51.00990 7.37623 9204 ft 292 kts 64°
2026-05-05 16:23 51.01817 7.43874 10324 ft 310 kts 104°
2026-05-05 16:24 51.01193 7.47272 10547 ft 331 kts 109°
2026-05-05 16:24 51.00472 7.50820 11000 ft 342 kts 109°
2026-05-05 16:24 50.99001 7.58069 12479 ft 347 kts 109°
2026-05-05 16:25 50.98269 7.61734 13236 ft 350 kts 109°
2026-05-05 16:25 50.96793 7.69199 14567 ft 358 kts 109°
2026-05-05 16:25 50.96045 7.72989 15236 ft 362 kts 109°
2026-05-05 16:26 50.94521 7.80674 16609 ft 368 kts 110°
2026-05-05 16:26 50.92007 7.87745 17911 ft 373 kts 126°
2026-05-05 16:27 50.90518 7.91132 18505 ft 376 kts 126°
2026-05-05 16:27 50.89036 7.94562 19099 ft 379 kts 126°
2026-05-05 16:27 50.88062 7.96861 19492 ft 380 kts 125°
2026-05-05 16:27 50.86593 8.00366 20075 ft 383 kts 125°
2026-05-05 16:28 50.85114 8.03882 20671 ft 385 kts 128°
2026-05-05 16:28 50.83241 8.06864 21209 ft 384 kts 147°
2026-05-05 16:28 50.80857 8.08744 21761 ft 384 kts 162°
2026-05-05 16:28 50.78293 8.09961 22326 ft 386 kts 165°
2026-05-05 16:29 50.74850 8.11471 23012 ft 390 kts 165°
2026-05-05 16:29 50.73076 8.12237 23362 ft 392 kts 165°
2026-05-05 16:29 50.70434 8.13385 23827 ft 395 kts 165°
2026-05-05 16:29 50.67780 8.14550 24352 ft 397 kts 165°
2026-05-05 16:30 50.65120 8.15729 24886 ft 398 kts 165°
2026-05-05 16:30 50.62448 8.16922 25367 ft 400 kts 165°
2026-05-05 16:30 50.59761 8.18128 25840 ft 403 kts 165°
2026-05-05 16:30 50.57055 8.19343 26302 ft 406 kts 165°
2026-05-05 16:31 50.54332 8.20567 26752 ft 409 kts 165°
2026-05-05 16:31 50.51591 8.21798 27206 ft 411 kts 165°
2026-05-05 16:31 50.48832 8.23035 27654 ft 413 kts 165°
2026-05-05 16:31 50.46061 8.24277 28111 ft 415 kts 165°
2026-05-05 16:32 50.43277 8.25523 28545 ft 417 kts 165°
2026-05-05 16:32 50.40484 8.26771 29118 ft 416 kts 165°
2026-05-05 16:32 50.37708 8.28011 29813 ft 413 kts 165°
2026-05-05 16:32 50.34957 8.29237 30415 ft 409 kts 165°
2026-05-05 16:33 50.32243 8.30448 31127 ft 402 kts 165°
2026-05-05 16:33 50.29604 8.31622 31717 ft 398 kts 165°
2026-05-05 16:33 50.26950 8.32800 32221 ft 396 kts 165°
2026-05-05 16:33 50.24301 8.33975 32669 ft 396 kts 165°
2026-05-05 16:34 50.21660 8.35144 33151 ft 394 kts 165°
2026-05-05 16:34 50.19033 8.36307 33707 ft 391 kts 166°
2026-05-05 16:34 50.16427 8.37459 34141 ft 389 kts 166°
2026-05-05 16:34 50.13814 8.38613 34421 ft 391 kts 166°
2026-05-05 16:35 50.11191 8.39769 34664 ft 393 kts 166°
2026-05-05 16:35 50.08549 8.40932 34860 ft 397 kts 166°
2026-05-05 16:35 50.03196 8.43286 34843 ft 399 kts 166°
2026-05-05 16:36 49.97916 8.45605 34823 ft 391 kts 166°
2026-05-05 16:36 49.92669 8.47903 34836 ft 392 kts 166°
2026-05-05 16:37 49.87404 8.50201 34836 ft 394 kts 165°
2026-05-05 16:37 49.82122 8.52504 34825 ft 395 kts 165°
2026-05-05 16:38 49.76821 8.54809 34826 ft 396 kts 165°
2026-05-05 16:38 49.71518 8.57110 34826 ft 396 kts 165°
2026-05-05 16:39 49.66211 8.59409 34832 ft 396 kts 165°
2026-05-05 16:39 49.60898 8.61703 34822 ft 396 kts 165°
2026-05-05 16:40 49.55591 8.63992 34831 ft 396 kts 165°
2026-05-05 16:40 49.50289 8.66272 34830 ft 395 kts 165°
2026-05-05 16:41 49.45019 8.68706 34831 ft 396 kts 160°
2026-05-05 16:41 49.39917 8.71901 34829 ft 397 kts 158°
2026-05-05 16:42 49.34826 8.75184 34836 ft 397 kts 158°
2026-05-05 16:42 49.29714 8.78436 34830 ft 398 kts 158°
2026-05-05 16:43 49.24587 8.81660 34825 ft 398 kts 158°
2026-05-05 16:43 49.19458 8.84867 34832 ft 398 kts 158°
2026-05-05 16:44 49.14321 8.88068 34813 ft 399 kts 159°
2026-05-05 16:44 49.09183 8.91263 34821 ft 399 kts 159°
2026-05-05 16:45 49.04039 8.94455 34828 ft 399 kts 159°
2026-05-05 16:45 48.98890 8.97642 34829 ft 400 kts 159°
2026-05-05 16:46 48.93765 9.00808 34826 ft 401 kts 159°
2026-05-05 16:46 48.88592 9.03996 34840 ft 402 kts 159°
2026-05-05 16:47 48.83387 9.07197 34839 ft 405 kts 159°
2026-05-05 16:47 48.78146 9.10413 34828 ft 407 kts 159°
2026-05-05 16:48 48.72905 9.13622 34823 ft 405 kts 159°
2026-05-05 16:48 48.67686 9.16811 34796 ft 404 kts 160°
2026-05-05 16:49 48.62490 9.19978 34823 ft 402 kts 160°
2026-05-05 16:49 48.57310 9.23128 34831 ft 401 kts 160°
2026-05-05 16:50 48.52137 9.26266 34827 ft 400 kts 160°
2026-05-05 16:50 48.46967 9.29396 34831 ft 401 kts 160°
2026-05-05 16:51 48.41793 9.32522 34832 ft 401 kts 160°
2026-05-05 16:51 48.36609 9.35647 34827 ft 402 kts 160°
2026-05-05 16:52 48.31418 9.38770 34827 ft 402 kts 160°
2026-05-05 16:52 48.26217 9.41891 34831 ft 403 kts 160°
2026-05-05 16:53 48.21006 9.45012 34805 ft 404 kts 161°
2026-05-05 16:53 48.15813 9.48115 34822 ft 405 kts 161°
2026-05-05 16:54 48.10582 9.51236 34829 ft 405 kts 161°
2026-05-05 16:54 48.05344 9.54353 34832 ft 405 kts 161°
2026-05-05 16:55 48.00257 9.58031 34824 ft 412 kts 149°
2026-05-05 16:55 47.95622 9.63082 34830 ft 413 kts 148°
2026-05-05 16:56 47.90985 9.68159 34836 ft 414 kts 148°
2026-05-05 16:56 47.86331 9.73201 34830 ft 414 kts 148°
2026-05-05 16:57 47.81668 9.78219 34829 ft 413 kts 149°
2026-05-05 16:57 47.77008 9.83216 34840 ft 413 kts 150°
2026-05-05 16:58 47.72349 9.88200 34850 ft 413 kts 150°
2026-05-05 16:58 47.67687 9.93177 34853 ft 413 kts 150°
2026-05-05 16:59 47.63023 9.98145 34846 ft 413 kts 150°
2026-05-05 16:59 47.58389 10.03070 34856 ft 413 kts 150°
2026-05-05 17:00 47.53715 10.08028 34808 ft 413 kts 151°
2026-05-05 17:00 47.49057 10.12960 34864 ft 411 kts 151°
2026-05-05 17:01 47.44403 10.17873 34862 ft 411 kts 151°
2026-05-05 17:01 47.39613 10.22398 34848 ft 408 kts 155°
2026-05-05 17:02 47.34766 10.26740 34856 ft 408 kts 155°
2026-05-05 17:02 47.29927 10.31136 34857 ft 408 kts 155°
2026-05-05 17:03 47.25083 10.35504 34868 ft 408 kts 155°
2026-05-05 17:03 47.20234 10.39866 34849 ft 408 kts 155°
2026-05-05 17:04 47.15377 10.44228 34878 ft 411 kts 155°
2026-05-05 17:04 47.10479 10.48621 34841 ft 413 kts 155°
2026-05-05 17:05 47.05524 10.52874 34881 ft 410 kts 161°
2026-05-05 17:05 47.00187 10.55511 34888 ft 405 kts 168°
2026-05-05 17:06 46.94795 10.57870 34418 ft 408 kts 169°
2026-05-05 17:06 46.92095 10.59062 34002 ft 404 kts 169°
2026-05-05 17:06 46.89425 10.60261 33573 ft 400 kts 169°
2026-05-05 17:07 46.86776 10.61458 33112 ft 397 kts 169°
2026-05-05 17:07 46.84152 10.62642 32719 ft 392 kts 169°
2026-05-05 17:07 46.81561 10.63805 32280 ft 388 kts 169°
2026-05-05 17:07 46.78996 10.64955 31930 ft 383 kts 169°
2026-05-05 17:08 46.76455 10.66090 31512 ft 381 kts 169°
2026-05-05 17:08 46.73931 10.67218 31115 ft 378 kts 169°
2026-05-05 17:08 46.71404 10.68135 30729 ft 369 kts 178°
2026-05-05 17:08 46.68875 10.68571 30363 ft 364 kts 180°
2026-05-05 17:09 46.66362 10.68958 29948 ft 362 kts 180°
2026-05-05 17:09 46.63859 10.69342 29490 ft 360 kts 180°
2026-05-05 17:09 46.61379 10.69728 29089 ft 357 kts 180°
2026-05-05 17:09 46.58922 10.70118 28711 ft 353 kts 180°
2026-05-05 17:10 46.56482 10.70505 28304 ft 351 kts 180°
2026-05-05 17:10 46.54062 10.70890 27900 ft 349 kts 179°
2026-05-05 17:10 46.51664 10.71274 27522 ft 345 kts 180°
2026-05-05 17:10 46.49285 10.71657 27152 ft 342 kts 179°
2026-05-05 17:11 46.46932 10.72035 26767 ft 339 kts 180°
2026-05-05 17:11 46.44601 10.72410 26393 ft 335 kts 180°
2026-05-05 17:11 46.42299 10.72782 25995 ft 331 kts 180°
2026-05-05 17:11 46.40017 10.73150 25663 ft 329 kts 180°
2026-05-05 17:12 46.37743 10.73514 25293 ft 329 kts 180°
2026-05-05 17:12 46.35474 10.73907 24945 ft 328 kts 179°
2026-05-05 17:12 46.33178 10.74288 24573 ft 337 kts 179°
2026-05-05 17:12 46.30816 10.74653 24154 ft 344 kts 179°
2026-05-05 17:13 46.28439 10.75020 23781 ft 343 kts 179°
2026-05-05 17:13 46.26067 10.75395 23318 ft 342 kts 179°
2026-05-05 17:13 46.23715 10.75768 22913 ft 338 kts 179°
2026-05-05 17:13 46.21384 10.76136 22547 ft 336 kts 179°
2026-05-05 17:14 46.19067 10.76505 22116 ft 334 kts 179°
2026-05-05 17:14 46.16785 10.76877 21807 ft 325 kts 179°
2026-05-05 17:14 46.14542 10.77234 21407 ft 324 kts 179°
2026-05-05 17:14 46.12334 10.77583 21045 ft 323 kts 179°
2026-05-05 17:15 46.10106 10.77935 20674 ft 321 kts 179°
2026-05-05 17:15 46.07885 10.78287 20293 ft 321 kts 179°
2026-05-05 17:15 46.05672 10.78638 19912 ft 319 kts 179°
2026-05-05 17:15 46.03470 10.78988 19569 ft 317 kts 179°
2026-05-05 17:16 46.01287 10.79336 19199 ft 314 kts 179°
2026-05-05 17:16 45.99121 10.79679 18860 ft 312 kts 179°
2026-05-05 17:16 45.96969 10.80018 18494 ft 310 kts 179°
2026-05-05 17:16 45.95524 10.80247 18255 ft 308 kts 179°
2026-05-05 17:17 45.93399 10.80586 17864 ft 306 kts 179°
2026-05-05 17:17 45.91296 10.80919 17496 ft 303 kts 179°
2026-05-05 17:17 45.89212 10.81248 17117 ft 299 kts 179°
2026-05-05 17:17 45.87168 10.81572 16823 ft 295 kts 179°
2026-05-05 17:18 45.85131 10.81892 16424 ft 294 kts 179°
2026-05-05 17:18 45.83109 10.82211 16121 ft 291 kts 179°
2026-05-05 17:18 45.81101 10.82463 15761 ft 288 kts 184°
2026-05-05 17:18 45.79108 10.82440 15433 ft 285 kts 186°
2026-05-05 17:19 45.77127 10.82343 15105 ft 285 kts 187°
2026-05-05 17:19 45.75144 10.82247 14764 ft 285 kts 186°
2026-05-05 17:19 45.73156 10.82163 14423 ft 286 kts 186°
2026-05-05 17:19 45.71190 10.82095 14097 ft 287 kts 186°
2026-05-05 17:20 45.69185 10.82031 13742 ft 288 kts 186°
2026-05-05 17:20 45.67187 10.81972 13322 ft 286 kts 186°
2026-05-05 17:20 45.65226 10.81910 12992 ft 277 kts 186°
2026-05-05 17:20 45.63337 10.81586 12654 ft 272 kts 196°
2026-05-05 17:21 45.61517 10.80900 12326 ft 270 kts 199°
2026-05-05 17:21 45.59712 10.80164 11993 ft 270 kts 199°
2026-05-05 17:21 45.57905 10.79447 11668 ft 269 kts 199°
2026-05-05 17:22 45.54300 10.78080 11027 ft 267 kts 198°
2026-05-05 17:22 45.52502 10.77412 10704 ft 267 kts 198°
2026-05-05 17:22 45.50707 10.76743 10378 ft 267 kts 198°
2026-05-05 17:22 45.48925 10.76072 10186 ft 261 kts 198°
2026-05-05 17:23 45.47192 10.75421 10054 ft 254 kts 198°
2026-05-05 17:23 45.45504 10.74786 9841 ft 250 kts 198°
2026-05-05 17:23 45.43825 10.74153 9559 ft 249 kts 198°
2026-05-05 17:23 45.42150 10.73523 9263 ft 249 kts 198°
2026-05-05 17:24 45.40499 10.72829 8971 ft 246 kts 207°
2026-05-05 17:24 45.39139 10.71411 8733 ft 244 kts 226°
2026-05-05 17:24 45.37924 10.69675 8478 ft 251 kts 226°
2026-05-05 17:24 45.36673 10.67896 8209 ft 257 kts 226°
2026-05-05 17:25 45.35407 10.66103 7931 ft 256 kts 226°
2026-05-05 17:25 45.34586 10.64910 7742 ft 255 kts 227°
2026-05-05 17:25 45.32961 10.62495 7387 ft 251 kts 227°
2026-05-05 17:25 45.31762 10.60713 7120 ft 248 kts 227°
2026-05-05 17:26 45.30570 10.58947 6862 ft 246 kts 227°
2026-05-05 17:26 45.29380 10.57211 6592 ft 244 kts 226°
2026-05-05 17:26 45.28190 10.55507 6330 ft 242 kts 224°
2026-05-05 17:26 45.26729 10.54352 6052 ft 245 kts 196°
2026-05-05 17:27 45.25025 10.54331 5797 ft 249 kts 171°
2026-05-05 17:27 45.23445 10.55335 5522 ft 251 kts 146°
2026-05-05 17:27 45.22168 10.56978 5260 ft 245 kts 138°
2026-05-05 17:27 45.21273 10.59009 4971 ft 246 kts 107°
2026-05-05 17:28 45.21263 10.61396 4722 ft 243 kts 75°
2026-05-05 17:28 45.22035 10.63480 4499 ft 237 kts 51°
2026-05-05 17:28 45.23124 10.65160 4262 ft 227 kts 45°
2026-05-05 17:28 45.24230 10.66694 4040 ft 217 kts 41°
2026-05-05 17:29 45.25315 10.68099 3964 ft 207 kts 43°
2026-05-05 17:29 45.26324 10.69505 3721 ft 206 kts 45°
2026-05-05 17:29 45.27337 10.70973 3463 ft 204 kts 46°
2026-05-05 17:29 45.28316 10.72405 3196 ft 200 kts 46°
2026-05-05 17:30 45.29278 10.73813 2921 ft 197 kts 47°
2026-05-05 17:30 45.30222 10.75196 2657 ft 193 kts 47°
2026-05-05 17:30 45.31150 10.76553 2397 ft 190 kts 47°
2026-05-05 17:30 45.32047 10.77864 2147 ft 186 kts 47°
2026-05-05 17:31 45.32924 10.79145 1892 ft 175 kts 48°
2026-05-05 17:31 45.33739 10.80337 1672 ft 162 kts 48°
2026-05-05 17:31 45.34481 10.81422 1464 ft 146 kts 48°
2026-05-05 17:31 45.35156 10.82409 1283 ft 135 kts 47°
2026-05-05 17:32 45.35800 10.83351 1093 ft 131 kts 47°
2026-05-05 17:32 45.36447 10.84296 913 ft 137 kts 47°
2026-05-05 17:32 45.37111 10.85266 737 ft 137 kts 48°
2026-05-05 17:32 45.37772 10.86237 547 ft 135 kts 47°
2026-05-05 17:33 45.38416 10.87175 362 ft 132 kts 46°
2026-05-05 17:33 45.39059 10.88105 240 ft 127 kts 47°
2026-05-05 17:33 45.39556 10.88835 238 ft 72 kts 45°
2026-05-05 17:33 45.39779 10.89158 239 ft 34 kts 45°
2026-05-05 17:34 45.39936 10.89389 241 ft 31 kts 46°
2026-05-05 17:34 45.40079 10.89598 244 ft 28 kts 45°
2026-05-05 17:34 45.40213 10.89791 245 ft 26 kts 46°
2026-05-05 17:34 45.40280 10.89941 245 ft 12 kts 73°
2026-05-05 17:35 45.40297 10.90042 244 ft 10 kts 77°
2026-05-05 17:35 45.40315 10.90146 243 ft 8 kts 75°
2026-05-05 17:35 45.40331 10.90229 242 ft 9 kts 75°
2026-05-05 17:35 45.40310 10.90302 241 ft 5 kts 134°
2026-05-05 17:36 45.40290 10.90330 241 ft 4 kts 134°
2026-05-05 17:36 45.40272 10.90358 241 ft 4 kts 134°
2026-05-05 17:36 45.40257 10.90390 241 ft 4 kts 103°
2026-05-05 17:36 45.40270 10.90435 241 ft 6 kts 50°
2026-05-05 17:37 45.40302 10.90487 241 ft 4 kts 67°
2026-05-05 17:37 45.40291 10.90524 241 ft 4 kts 129°
2026-05-05 17:37 45.40275 10.90546 241 ft 1 kts 135°
2026-05-05 17:37 45.40272 10.90551 241 ft 0 kts 135°